Location: Cheyres
(46.8153°N, 6.7877°E)
Time: 13:25:38
(UTC+00:00)

Cosmos 1515 Rocket - Pass Details

Date: 11 May 2021
Orbit: 606 x 630 km, 82.5° (Epoch: 19 June)

Event Time Altitude Azimuth Distance (km) Brightness Sun altitude
Exits shadow 20:29:36 18° 164° (SSE) 1,547 5.1 -13.5°
Maximum altitude 20:32:42 51° 94° (E) 784 3.8 -13.9°
Drops below altitude 10° 20:36:59 10° 19° (NNE) 1,991 6.5 -14.4°
Sets 20:39:15 0° 14° (NNE) 2,897 7.5 -14.7°
